Change the Weather History Date:

Sunday, April 13, 2014

  Actual Average Record
Temperature  
Mean Temperature 74 °F 56 °F  
Max Temperature 85 °F 67 °F 90 °F (1906)
Min Temperature 63 °F 44 °F 26 °F (1990)
Degree Days  
Heating Degree Days 0 10  
Month to date heating degree days 90 157  
Since 1 July heating degree days 4591 4254  
Cooling Degree Days 9 1  
Month to date cooling degree days 9 12  
Year to date cooling degree days 9 17  
Growing Degree Days 24 (Base 50)    
Moisture  
Dew Point 46 °F    
Average Humidity 41    
Maximum Humidity 56    
Minimum Humidity 25    
Precipitation  
Precipitation 0.00 in 0.11 in 1.73 in (1893)
Month to date precipitation 0.91 1.45  
Year to date precipitation 11.38 11.39  
Snow  
Snow 0.00 in - - ()
Month to date snowfall 0.0  
Since 1 September snowfall 36.8  
Snow Depth 0.00 in    
Sea Level Pressure  
Sea Level Pressure 29.93 in    
Wind  
Wind Speed 10 mph (SSW)    
Max Wind Speed 20 mph    
Max Gust Speed 29 mph    
Visibility 10 miles    
Events      
T = Trace of Precipitation, MM = Missing Value Source: NWS Daily Summary

Daily Weather History Graph

Daily Weather History Graph

Search for Another Location

Airport or City:

Trip Planner

Search our weather history database for the weather conditions in past years. The results will help you decide how hot, cold, wet, or windy it might be!

Date:

Astronomy

Apr. 13, 2014 Rise Set
Actual Time 6:57 AM EDT 8:04 PM EDT
Civil Twilight 6:30 AM EDT 8:32 PM EDT
Nautical Twilight 5:57 AM EDT 9:04 PM EDT
Astronomical Twilight 5:23 AM EDT 9:38 PM EDT
Moon 6:42 PM EDT (4/13) 5:54 AM EDT (4/13)
Length of Visible Light 14h 01m
Length of Day
13h 07m
Waxing Gibbous, 97% of the Moon is Illuminated
Apr 13
Waxing Gibbous
Apr 15
Full
Apr 22
Last Quarter
Apr 29
New
May 6
First Quarter

Hourly Weather History & Observations

Time (EDT) Temp. Dew Point Humidity Pressure Visibility Wind Dir Wind Speed Gust Speed Precip Events Conditions
12:51 AM 69.1 °F 44.1 °F 40% 29.93 in 10.0 mi SSW 9.2 mph - N/A   Clear
1:51 AM 66.9 °F 45.0 °F 45% 29.94 in 10.0 mi SSW 6.9 mph - N/A   Clear
2:51 AM 66.9 °F 46.0 °F 47% 29.94 in 10.0 mi South 5.8 mph - N/A   Clear
3:51 AM 68.0 °F 46.9 °F 47% 29.94 in 10.0 mi SSW 9.2 mph - N/A   Clear
4:51 AM 66.9 °F 46.0 °F 47% 29.96 in 10.0 mi South 8.1 mph - N/A   Scattered Clouds
5:51 AM 64.9 °F 46.0 °F 50% 29.98 in 10.0 mi SSW 5.8 mph - N/A   Clear
6:51 AM 64.4 °F 46.4 °F 52% 30.02 in 10.0 mi South 3.5 mph - N/A   Clear
7:51 AM 64.9 °F 48.0 °F 54% 30.04 in 10.0 mi Calm Calm - N/A   Clear
8:51 AM 66.0 °F 50.0 °F 56% 30.06 in 10.0 mi South 5.8 mph - N/A   Partly Cloudy
9:51 AM 69.1 °F 50.0 °F 51% 30.04 in 10.0 mi SSW 6.9 mph - N/A   Partly Cloudy
10:51 AM 73.9 °F 50.0 °F 43% 30.03 in 10.0 mi SSW 11.5 mph 20.7 mph N/A   Clear
11:51 AM 75.9 °F 50.0 °F 40% 30.01 in 10.0 mi SSW 15.0 mph 23.0 mph N/A   Clear
12:51 PM 78.1 °F 46.9 °F 33% 29.98 in 10.0 mi SW 13.8 mph 26.5 mph N/A   Clear
1:51 PM 81.0 °F 46.9 °F 30% 29.95 in 10.0 mi South 15.0 mph 26.5 mph N/A   Clear
2:51 PM 82.0 °F 46.0 °F 28% 29.92 in 10.0 mi South 15.0 mph 24.2 mph N/A   Clear
3:51 PM 82.9 °F 45.0 °F 26% 29.88 in 10.0 mi South 15.0 mph 20.7 mph N/A   Clear
4:51 PM 84.2 °F 44.6 °F 25% 29.89 in 10.0 mi South 11.5 mph - N/A   Clear
5:51 PM 84.9 °F 44.1 °F 24% 29.85 in 10.0 mi SSW 13.8 mph 20.7 mph N/A   Clear
6:51 PM 82.9 °F 44.1 °F 25% 29.84 in 10.0 mi South 10.4 mph - N/A   Clear
7:51 PM 81.0 °F 44.1 °F 27% 29.83 in 10.0 mi SSW 10.4 mph 20.7 mph N/A   Clear
8:51 PM 79.0 °F 44.1 °F 29% 29.83 in 10.0 mi SW 8.1 mph - N/A   Clear
9:51 PM 77.0 °F 43.0 °F 30% 29.83 in 10.0 mi SSW 5.8 mph - N/A   Clear
10:51 PM 75.9 °F 45.0 °F 33% 29.82 in 10.0 mi South 9.2 mph - N/A   Clear
11:51 PM 75.0 °F 48.0 °F 38% 29.81 in 10.0 mi South 13.8 mph 21.9 mph N/A   Clear